Skip Page Navigation
NASA JPL Caltech
NASA Logo - Jet Propulsion Laboratory + View the NASA Portal
+ Center for Near-Earth Object Studies
JPL Home Earth Solar System Stars & Galaxies Technology
JPL Solar System Dynamics
BODIES ORBITS EPHEMERIDES TOOLS PHYSICAL DATA DISCOVERY FAQ SITE MAP
JPL Small-Body Database Browser
Search: [ help ]  
382986 (2005 CM37)
Classification: Main-belt Asteroid          SPK-ID: 2382986
Ephemeris | Orbit Diagram | Orbital Elements | Mission Design | Physical Parameters | Discovery Circumstances | Close-Approach Data ]

[ hide orbit diagram ]

For accurate long-term ephemerides, please instead use our Horizons system.This orbit viewer was implemented using two-body methods, and hence should not be used for determining accurate long-term trajectories (over several years or decades) or planetary encounter circumstances.


[ revert to old Java-based viewer ]

Orbital Elements at Epoch 2459000.5 (2020-May-31.0) TDB
Reference: JPL 15 (heliocentric ecliptic J2000)
 Element Value Uncertainty (1-sigma)   Units 
e .1267682916910299 1.0694e-07  
a 2.714229667730109 4.2568e-08 au
q 2.370151409494851 2.6554e-07 au
i 15.04461098270472 5.869e-06 deg
node 132.6828745504766 3.4797e-05 deg
peri 40.42909026218816 4.5186e-05 deg
M 125.2698822215537 3.1566e-05 deg
tp 2458432.154422389704
(2018-Nov-09.65442239)
0.00013765 TDB
period 1633.308855338756
4.47
3.8424e-05
1.052e-07
d
yr
n .2204114664677639 5.1852e-09 deg/d
Q 3.058307925965366 4.7964e-08 au
  Orbit Determination Parameters
   # obs. used (total)      178  
   data-arc span      5332 days (14.60 yr)  
   first obs. used      2005-01-17  
   last obs. used      2019-08-24  
   planetary ephem.      DE431  
   SB-pert. ephem.      SB431-N16  
   condition code      0  
   norm. resid. RMS      .64135  
   source      ORB  
   producer      Otto Matic  
   solution date      2020-Feb-26 03:38:58  

Additional Information
 Earth MOID = 1.39724 au 
 Jupiter MOID = 1.98281 au 
 T_jup = 3.301 
[ show covariance matrix ]

Ephemeris | Orbit Diagram | Orbital Elements | Mission Design | Physical Parameters | Discovery Circumstances | Close-Approach Data ]

Physical Parameter Table
Parameter Symbol Value Units Sigma Reference Notes
absolute magnitude H 16.4   n/a MPO434375  

382986 (2005 CM37)          Discovered 2005-Feb-04 by Lowe, A. at Mayhill
Reference: Last Updated: 2014-01-21

[ show close-approach data ]
Ephemeris | Orbit Diagram | Orbital Elements | Mission Design | Physical Parameters | Discovery Circumstances | Close-Approach Data ]
ABOUT SSD CREDITS/AWARDS PRIVACY/COPYRIGHT GLOSSARY LINKS
FirstGov 2020-Sep-18 09:10 UT
(server date/time)  
NASA Home Page
Site Manager:   Ryan S. Park
Webmaster  Alan B. Chamberlin